Current Weather Conditions: station LYUZ

sailwx.info

Wind from 270 at 8 knots

Air temperature 5.0° C
Dewpoint -1.0° C

Last reported at 2015-Apr-22 02:30 UTC.
Time now 2015-Apr-22 03:49 UTC

Location: N 43°54' E 019°42'.
View on Google Maps.

See reports from other nearby stations

  
Tides and Currents Weather Stations Pressure Air Temp Water Temp Dewpoint Dewpoint Depression Visibility Wind Speed Wind Dir Waves Ship Positions
date/time (UTC)wind fromknots sea level pressurealtimeterstation pressurevisibilityair tempwater tempwave heightnotes
2015-Apr-22 02:30 270 8 5.0
2015-Apr-22 02:00 260 4 5.0
2015-Apr-22 01:30 260 3 4.0
2015-Apr-22 01:00 250 3 4.0
2015-Apr-22 00:30 270 3 5.0
2015-Apr-22 00:00 5.0
2015-Apr-21 23:30 240 3 6.0
2015-Apr-21 23:00 240 3 6.0
2015-Apr-21 22:30 230 3 6.0
2015-Apr-21 22:00 250 3 6.0
2015-Apr-21 21:30 290 5 6.0
2015-Apr-21 21:00 290 8 6.0
2015-Apr-21 20:30 270 6 6.0
2015-Apr-21 20:00 290 9 8.0
2015-Apr-21 19:30 290 7 8.0
2015-Apr-21 19:00 300 7 8.0
2015-Apr-21 18:30 300 7 8.0
2015-Apr-21 18:00 320 6 8.0
2015-Apr-21 17:30 320 7 8.0
2015-Apr-21 17:00 310 10 9.0
2015-Apr-21 16:30 310 12 10.0
2015-Apr-21 16:00 300 11 10.0
2015-Apr-21 15:30 300 15 10.0
2015-Apr-21 15:00 300 12 11.0
2015-Apr-21 14:30 290 16 5.411.0
2015-Apr-21 14:00 300 15 5.411.0
2015-Apr-21 13:30 310 14 5.411.0
2015-Apr-21 13:00 310 15 5.411.0
2015-Apr-21 12:30 300 12 gusting 25 5.411.0
2015-Apr-21 12:00 320 12 5.411.0
2015-Apr-21 11:30 310 9 5.411.0
2015-Apr-21 11:00 310 10 gusting 22 5.411.0
2015-Apr-21 10:30 5.410.0
2015-Apr-21 10:00 5.410.0
2015-Apr-21 09:30 300 10 5.4 8.0
2015-Apr-21 09:00 5.4 8.0
2015-Apr-21 08:30 300 11 5.4 8.0
2015-Apr-21 08:00 300 11 5.4 7.0
2015-Apr-21 07:30 300 10 5.4 7.0
2015-Apr-21 07:00 290 10 5.4 6.0
2015-Apr-21 06:30 310 7 5.4 6.0
2015-Apr-21 06:00 320 6 5.4 6.0
2015-Apr-21 05:30 320 6 5.4 5.0
2015-Apr-21 05:00 320 6 5.4 5.0
2015-Apr-21 04:30 310 7 5.0
2015-Apr-21 04:00 310 5 5.0
2015-Apr-21 03:30 300 3 5.0
2015-Apr-21 03:00 340 4 6.0
2015-Apr-21 02:30 340 4 6.0
2015-Apr-21 02:00 320 8 6.0
2015-Apr-21 01:30 320 10 7.0
2015-Apr-21 01:00 310 10 7.0
2015-Apr-21 00:30 310 10 7.0
2015-Apr-21 00:00 300 11 7.0
2015-Apr-20 23:30 300 10 7.0
2015-Apr-20 23:00 300 9 7.0
2015-Apr-20 22:30 300 10 7.0
2015-Apr-20 22:00 300 8 7.0
2015-Apr-20 21:30 300 9 8.0
2015-Apr-20 21:00 300 10 8.0
2015-Apr-20 20:30 300 10 8.0
2015-Apr-20 20:00 300 10 8.0
2015-Apr-20 19:30 300 9 8.0
2015-Apr-20 19:00 310 7 8.0
2015-Apr-20 18:30 320 8 gusting 18 8.0
2015-Apr-20 18:00 310 9 8.0
2015-Apr-20 17:30 300 10 8.0
2015-Apr-20 17:00 300 10 9.0
2015-Apr-20 16:30 290 10 9.0
2015-Apr-20 16:00 310 9 10.0
2015-Apr-20 15:30 310 10 10.0
2015-Apr-20 15:00 320 11 10.0
2015-Apr-20 14:30 300 11 11.0
2015-Apr-20 14:00 310 9 10.0
2015-Apr-20 13:30 310 10 5.410.0
2015-Apr-20 13:00 310 9 5.410.0
2015-Apr-20 12:30 310 7 5.4 9.0
2015-Apr-20 12:00 320 8 5.4 9.0
2015-Apr-20 11:30 5.4 9.0
2015-Apr-20 11:00 290 6 5.4 8.0
2015-Apr-20 10:30 340 7 5.4 7.0
2015-Apr-20 10:00 320 6 5.4 7.0
2015-Apr-20 09:30 300 10 5.4 6.0
2015-Apr-20 09:00 290 6 5.4 6.0
2015-Apr-20 08:30 300 10 5.4 6.0
2015-Apr-20 08:00 300 8 5.4 5.0
2015-Apr-20 07:30 310 6 5.0
2015-Apr-20 07:00 310 6 4.0
2015-Apr-20 06:30 290 5 4.0
2015-Apr-20 06:00 290 4 3.0
2015-Apr-20 05:30 300 3 1.0
2015-Apr-20 05:00 310 3 -1.0
2015-Apr-20 04:30 310 3 -1.0
2015-Apr-20 04:00 -2.0
2015-Apr-20 03:30 280 2 -2.0
2015-Apr-20 03:00 -1.0